COSMOS 2251 DEB, 34065

Orbit data source: Space-Track

COSMOS 2251 DEB, 34065 is space debris in LEO originally from a launch on Wed, 16 Jun 1993 UTC launched from the Plesetsk Missile And Space Complex (PKMTR). The debris from Iridium 33, an American commercial communications satellite, has been tracked extensively since its accidental collision with the defunct Russian satellite Cosmos 2251 in 2009. This event, occurring at high speed in low Earth orbit (LEO), generated thousands of pieces of space debris, significantly increasing the risk of further collisions. The Iridium 33 debris cloud has impacted space traffic management and orbital debris mitigation strategies, making it a subject of ongoing study in space situational awareness.

Loading next visibility...
Identifier
34065, 1993-036KC
Orbit
LEO
Country
Flag of CISCIS
Related business
Manufacturer
Unknown
Mission
Spacecraft
Bus & Motor
Unknown
Mass
Unknown
Launch date (UTC)
1993-06-16 (33 years ago)
Launch vehicle
Unknown
Launch site
Plesetsk Missile And Space Complex (PKMTR)
Object type
Payload
Rocket body
Debris
Shape & HBR
Unknown shape, 0.1 m
Radar Cross Section
Small (<0.1 m²)

Expand to show TLE details & history
Last TLE update: 7 hours ago

TLE from 7 hours ago
0 COSMOS 2251 DEB
1 34065U 93036KC  26121.09392561  .00000373  00000-0  13112-3 0  9990
2 34065  74.0373   1.4044 0015589  69.3518  94.0748 14.38209129902087
Epoch: 2026-05-01T02:15Z
TLE epoch observation values (Epoch: 2026-05-01T02:15:15.172Z)
Latitude
15.73176°
Longitude
-76.03678°
Altitude
767.164 km
Speed
7.472 km/s
True Right ascension
11h 47m 13s
True Declination
15° 38' 32"
Sunlit
Object was in full shadow at epoch
Visualization orbit readout
Latitude
Unknown
Longitude
Unknown
Altitude
Unknown
Speed
Unknown
Apparent Right ascension
Unknown
Apparent Declination
Unknown
Sunlit
N/A
Visualization observer readout
Local Sidereal Time
17:15:09
Azimuth
Unknown
Elevation
Unknown
Doppler factor
Unknown
Orbital elements
Apogee altitude
773.174 km
Perigee altitude
750.912 km
Semi-major axis
7,140.18 km
Eccentricity
0.00156
Inclination
74.0373°
RAAN
1.4044°
Arg. of periapsis
69.3518°
True anomaly
94.25296°
Mean anomaly
94.0748°
Eccentric anomaly
94.16388°
Mean motion
3.59732 °/min
Orbital period
100.07 mins
BSTAR
0.00013112
Loading maneuver chart data...
Computing Atmospheric mass density...
Loading historical data...
Loading historical data...
Loading historical data...
Loading historical data...
Loading historical data...
Loading historical data...
Loading historical data...

Documentation

Showing up to 5 results
|